| time (UTC) | temp C | wind direction | speed KPH | gust KPH | rain 1hr cm | rain 24hr cm | rain mn cm | humidity % | barometer mb |
| 20260507125052 | 13 | 90 | 4.8 | 9.7 | 0.00 | 0.00 | 0.00 | 44 | 937.0 |
| 20260507125023 | 13 | 90 | 4.8 | 9.7 | 0.00 | 0.00 | 0.00 | 43 | 937.4 |
| 20260507124031 | 13 | 113 | 4.8 | 9.7 | 0.00 | 0.00 | 0.00 | 43 | 937.1 |
| 20260507123521 | 13 | 135 | 4.8 | 11.3 | 0.00 | 0.00 | 0.00 | 43 | 937.1 |
| 20260507123238 | 13 | 113 | 6.4 | 11.3 | 0.00 | 0.00 | 0.00 | 42 | 936.7 |
| 20260507122501 | 14 | 113 | 6.4 | 14.5 | 0.00 | 0.00 | 0.00 | 42 | 936.8 |
| 20260507122215 | 14 | 135 | 9.7 | 20.9 | 0.00 | 0.00 | 0.00 | 42 | 936.9 |
| 20260507121704 | 14 | 135 | 11.3 | 20.9 | 0.00 | 0.00 | 0.00 | 42 | 937.0 |
| 20260507121414 | 14 | 158 | 16.1 | 20.9 | 0.00 | 0.00 | 0.00 | 38 | 936.7 |
| 20260507120420 | 15 | 180 | 9.7 | 29.0 | 0.00 | 0.00 | 0.00 | 38 | 936.8 |
| 20260507115910 | 15 | 158 | 12.9 | 29.0 | 0.00 | 0.00 | 0.00 | 37 | 936.3 |
| 20260507115400 | 15 | 180 | 16.1 | 24.1 | 0.00 | 0.00 | 0.00 | 35 | 936.2 |
| 20260507114850 | 15 | 113 | 9.7 | 37.0 | 0.00 | 0.00 | 0.00 | 38 | 936.3 |
| 20260507114340 | 15 | 135 | 16.1 | 37.0 | 0.00 | 0.00 | 0.00 | 36 | 936.2 |
| 20260507113830 | 15 | 113 | 22.5 | 32.2 | 0.00 | 0.00 | 0.00 | 35 | 936.4 |
| 20260507113538 | 15 | 113 | 12.9 | 25.7 | 0.00 | 0.00 | 0.00 | 36 | 936.6 |
| 20260507112810 | 16 | 180 | 12.9 | 29.0 | 0.00 | 0.00 | 0.00 | 34 | 937.0 |
| 20260507112300 | 16 | 180 | 16.1 | 29.0 | 0.00 | 0.00 | 0.00 | 35 | 936.4 |
| 20260507112017 | 16 | 158 | 11.3 | 33.8 | 0.00 | 0.00 | 0.00 | 39 | 936.4 |
| 20260507111459 | 16 | 203 | 16.1 | 33.8 | 0.00 | 0.00 | 0.00 | 37 | 936.8 |
| 20260507110729 | 15 | 203 | 14.5 | 29.0 | 0.00 | 0.00 | 0.00 | 39 | 936.0 |
| 20260507110219 | 15 | 158 | 20.9 | 38.6 | 0.00 | 0.00 | 0.00 | 40 | 934.8 |
| 20260507105709 | 15 | 158 | 14.5 | 38.6 | 0.00 | 0.00 | 0.00 | 41 | 934.6 |
| 20260507105159 | 15 | 203 | 22.5 | 37.0 | 0.00 | 0.00 | 0.00 | 41 | 934.6 |
| 20260507104649 | 15 | 158 | 24.1 | 37.0 | 0.00 | 0.00 | 0.00 | 42 | 934.5 |
| 20260507104139 | 15 | 180 | 17.7 | 32.2 | 0.00 | 0.00 | 0.00 | 46 | 934.5 |
| 20260507104111 | 15 | 180 | 19.3 | 25.7 | 0.00 | 0.00 | 0.00 | 47 | 934.2 |
| 20260507103118 | 14 | 158 | 11.3 | 20.9 | 0.00 | 0.00 | 0.00 | 51 | 934.5 |
| 20260507102608 | 14 | 158 | 6.4 | 25.7 | 0.00 | 0.00 | 0.00 | 56 | 934.6 |
| 20260507102550 | 14 | 180 | 12.9 | 25.7 | 0.00 | 0.00 | 0.00 | 54 | 934.6 |
| 20260507101555 | 13 | 158 | 14.5 | 24.1 | 0.00 | 0.00 | 0.00 | 57 | 934.9 |
| 20260507101038 | 13 | 158 | 17.7 | 24.1 | 0.00 | 0.00 | 0.00 | 55 | 934.9 |
| 20260507100528 | 13 | 158 | 12.9 | 24.1 | 0.00 | 0.00 | 0.00 | 56 | 934.5 |
| 20260507100018 | 13 | 135 | 11.3 | 17.7 | 0.00 | 0.00 | 0.00 | 61 | 933.7 |
| 20260507095508 | 13 | 135 | 6.4 | 24.1 | 0.00 | 0.00 | 0.00 | 61 | 933.7 |
| 20260507094958 | 13 | 135 | 6.4 | 24.1 | 0.00 | 0.00 | 0.00 | 61 | 933.8 |
| 20260507094445 | 13 | 90 | 11.3 | 17.7 | 0.00 | 0.00 | 0.00 | 57 | 933.8 |
| 20260507093937 | 14 | 158 | 11.3 | 25.7 | 0.00 | 0.00 | 0.00 | 56 | 934.6 |
| 20260507093427 | 14 | 158 | 16.1 | 25.7 | 0.00 | 0.00 | 0.00 | 52 | 934.0 |
| 20260507092917 | 15 | 158 | 17.7 | 27.4 | 0.00 | 0.00 | 0.00 | 47 | 934.0 |
| 20260507092407 | 15 | 135 | 20.9 | 27.4 | 0.00 | 0.00 | 0.00 | 44 | 934.4 |
| 20260507092123 | 16 | 203 | 12.9 | 27.4 | 0.00 | 0.00 | 0.00 | 43 | 935.1 |
| 20260507091613 | 16 | 180 | 16.1 | 33.8 | 0.00 | 0.00 | 0.00 | 42 | 935.2 |
| 20260507090837 | 16 | 158 | 24.1 | 33.8 | 0.00 | 0.00 | 0.00 | 44 | 934.5 |
| 20260507090328 | 16 | 180 | 17.7 | 32.2 | 0.00 | 0.00 | 0.00 | 44 | 934.3 |
| 20260507085816 | 16 | 180 | 11.3 | 27.4 | 0.00 | 0.00 | 0.00 | 44 | 934.1 |
| 20260507085306 | 16 | 203 | 8.0 | 25.7 | 0.00 | 0.00 | 0.00 | 47 | 933.8 |
| 20260507084756 | 16 | 158 | 16.1 | 25.7 | 0.00 | 0.00 | 0.00 | 47 | 933.4 |
| 20260507084246 | 16 | 180 | 14.5 | 33.8 | 0.00 | 0.00 | 0.00 | 46 | 933.6 |
| 20260507083735 | 16 | 135 | 14.5 | 33.8 | 0.00 | 0.00 | 0.00 | 46 | 933.8 |
| 20260507083226 | 16 | 158 | 17.7 | 33.8 | 0.00 | 0.00 | 0.00 | 46 | 934.0 |
| 20260507082716 | 16 | 180 | 24.1 | 32.2 | 0.00 | 0.00 | 0.00 | 45 | 933.8 |
| 20260507082206 | 16 | 180 | 16.1 | 29.0 | 0.00 | 0.00 | 0.00 | 46 | 934.3 |
| 20260507081656 | 16 | 180 | 17.7 | 29.0 | 0.00 | 0.00 | 0.00 | 45 | 934.6 |
| 20260507081145 | 16 | 203 | 14.5 | 32.2 | 0.00 | 0.00 | 0.00 | 47 | 934.5 |
| 20260507080636 | 16 | 158 | 17.7 | 37.0 | 0.00 | 0.00 | 0.00 | 45 | 934.6 |
| 20260507080125 | 17 | 180 | 19.3 | 37.0 | 0.00 | 0.00 | 0.00 | 46 | 934.4 |
| 20260507075615 | 17 | 158 | 17.7 | 40.2 | 0.00 | 0.00 | 0.00 | 45 | 934.7 |
| 20260507075105 | 17 | 158 | 17.7 | 40.2 | 0.00 | 0.00 | 0.00 | 44 | 934.6 |
| 20260507074554 | 17 | 158 | 17.7 | 38.6 | 0.00 | 0.00 | 0.00 | 44 | 934.3 |
| 20260507074044 | 17 | 158 | 20.9 | 37.0 | 0.00 | 0.00 | 0.00 | 44 | 934.4 |
| 20260507073753 | 17 | 158 | 24.1 | 38.6 | 0.00 | 0.00 | 0.00 | 42 | 934.4 |
| 20260507073024 | 17 | 203 | 25.7 | 43.5 | 0.00 | 0.00 | 0.00 | 42 | 934.2 |
| 20260507072514 | 17 | 158 | 25.7 | 43.5 | 0.00 | 0.00 | 0.00 | 42 | 934.2 |
| 20260507072004 | 17 | 158 | 22.5 | 38.6 | 0.00 | 0.00 | 0.00 | 41 | 934.2 |
| 20260507071716 | 17 | 180 | 27.4 | 40.2 | 0.00 | 0.00 | 0.00 | 41 | 933.8 |
| 20260507070945 | 17 | 135 | 17.7 | 49.9 | 0.00 | 0.00 | 0.00 | 41 | 933.9 |
| 20260507070433 | 17 | 158 | 24.1 | 49.9 | 0.00 | 0.00 | 0.00 | 40 | 933.9 |
| 20260507065924 | 18 | 180 | 22.5 | 48.3 | 0.00 | 0.00 | 0.00 | 41 | 934.1 |
| 20260507065635 | 18 | 203 | 27.4 | 48.3 | 0.00 | 0.00 | 0.00 | 41 | 934.1 |
| 20260507065128 | 18 | 135 | 22.5 | 46.7 | 0.00 | 0.00 | 0.00 | 39 | 934.1 |
| 20260507064354 | 18 | 203 | 32.2 | 48.3 | 0.00 | 0.00 | 0.00 | 39 | 933.6 |
| 20260507063843 | 18 | 203 | 24.1 | 48.3 | 0.00 | 0.00 | 0.00 | 41 | 934.0 |
| 20260507063334 | 18 | 203 | 22.5 | 35.4 | 0.00 | 0.00 | 0.00 | 40 | 934.2 |
| 20260507062823 | 18 | 158 | 17.7 | 38.6 | 0.00 | 0.00 | 0.00 | 42 | 933.8 |
| 20260507062314 | 18 | 203 | 24.1 | 38.6 | 0.00 | 0.00 | 0.00 | 40 | 933.8 |
| 20260507061802 | 18 | 158 | 19.3 | 37.0 | 0.00 | 0.00 | 0.00 | 42 | 933.2 |
| 20260507061253 | 18 | 180 | 17.7 | 43.5 | 0.00 | 0.00 | 0.00 | 41 | 933.3 |
| 20260507060742 | 18 | 180 | 22.5 | 43.5 | 0.00 | 0.00 | 0.00 | 40 | 933.4 |
| 20260507060233 | 18 | 180 | 17.7 | 40.2 | 0.00 | 0.00 | 0.00 | 42 | 933.4 |
| 20260507055723 | 18 | 180 | 24.1 | 40.2 | 0.00 | 0.00 | 0.00 | 42 | 933.5 |
| 20260507055212 | 18 | 180 | 25.7 | 35.4 | 0.00 | 0.00 | 0.00 | 45 | 933.4 |
| 20260507054923 | 18 | 180 | 20.9 | 29.0 | 0.00 | 0.00 | 0.00 | 45 | 933.5 |
| 20260507054152 | 18 | 158 | 19.3 | 32.2 | 0.00 | 0.00 | 0.00 | 47 | 933.6 |
| 20260507053642 | 18 | 158 | 17.7 | 32.2 | 0.00 | 0.00 | 0.00 | 46 | 933.4 |
| 20260507053132 | 19 | 158 | 19.3 | 29.0 | 0.00 | 0.00 | 0.00 | 47 | 933.5 |
| 20260507052621 | 19 | 158 | 20.9 | 29.0 | 0.00 | 0.00 | 0.00 | 47 | 933.4 |
| 20260507052111 | 19 | 180 | 20.9 | 29.0 | 0.00 | 0.00 | 0.00 | 47 | 933.6 |
| 20260507051830 | 19 | 158 | 16.1 | 27.4 | 0.00 | 0.00 | 0.00 | 49 | 933.3 |
| 20260507051313 | 19 | 180 | 17.7 | 38.6 | 0.00 | 0.00 | 0.00 | 49 | 933.5 |
| 20260507050541 | 20 | 158 | 24.1 | 38.6 | 0.00 | 0.00 | 0.00 | 49 | 933.2 |
| 20260507050031 | 20 | 158 | 17.7 | 37.0 | 0.00 | 0.00 | 0.00 | 50 | 933.4 |
| 20260507045522 | 20 | 158 | 24.1 | 37.0 | 0.00 | 0.00 | 0.00 | 49 | 933.3 |
| 20260507045229 | 20 | 135 | 11.3 | 35.4 | 0.00 | 0.00 | 0.00 | 50 | 933.0 |
| 20260507044500 | 20 | 180 | 14.5 | 37.0 | 0.00 | 0.00 | 0.00 | 53 | 933.1 |
| 20260507043951 | 20 | 180 | 17.7 | 38.6 | 0.00 | 0.00 | 0.00 | 54 | 933.0 |
| 20260507043705 | 20 | 158 | 19.3 | 38.6 | 0.00 | 0.00 | 0.00 | 54 | 933.0 |
| 20260507042930 | 20 | 158 | 19.3 | 32.2 | 0.00 | 0.00 | 0.00 | 58 | 932.9 |
| 20260507042858 | 20 | 203 | 14.5 | 24.1 | 0.00 | 0.00 | 0.00 | 65 | 933.0 |
| 20260507042135 | 20 | 158 | 14.5 | 24.1 | 0.00 | 0.00 | 0.00 | 71 | 933.1 |
| 20260507041359 | 20 | 158 | 16.1 | 27.4 | 0.00 | 0.00 | 0.00 | 72 | 933.3 |
| 20260507041109 | 20 | 135 | 12.9 | 27.4 | 0.00 | 0.00 | 0.00 | 72 | 932.8 |
| 20260507040340 | 20 | 180 | 17.7 | 20.9 | 0.00 | 0.00 | 0.00 | 72 | 932.8 |
| 20260507035829 | 21 | 158 | 9.7 | 17.7 | 0.00 | 0.00 | 0.00 | 72 | 932.8 |
| 20260507035320 | 20 | 180 | 6.4 | 17.7 | 0.00 | 0.00 | 0.00 | 73 | 932.7 |
| 20260507034810 | 20 | 248 | 6.4 | 12.9 | 0.00 | 0.00 | 0.00 | 78 | 932.7 |
| 20260507034300 | 19 | 225 | 4.8 | 11.3 | 0.00 | 0.00 | 0.00 | 81 | 932.9 |
| 20260507033750 | 18 | 225 | 3.2 | 12.9 | 0.00 | 0.00 | 0.00 | 83 | 932.6 |
| 20260507033239 | 18 | 225 | 6.4 | 14.5 | 0.00 | 0.00 | 0.00 | 84 | 932.9 |
| 20260507032729 | 18 | 225 | 8.0 | 14.5 | 0.00 | 0.00 | 0.00 | 85 | 932.8 |
| 20260507032219 | 18 | 248 | 9.7 | 12.9 | 0.00 | 0.00 | 0.00 | 84 | 932.7 |
| 20260507031913 | 19 | 203 | 6.4 | 12.9 | 0.00 | 0.00 | 0.00 | 82 | 932.4 |
| 20260507031905 | 18 | 225 | 4.8 | 12.9 | 0.00 | 0.00 | 0.00 | 84 | 932.6 |
| 20260507030649 | 19 | 203 | 0.0 | 17.7 | 0.00 | 0.00 | 0.00 | 81 | 932.2 |
| 20260507030403 | 20 | 225 | 14.5 | 17.7 | 0.00 | 0.00 | 0.00 | 80 | 932.1 |
| 20260507025628 | 21 | 338 | 6.4 | 17.7 | 0.00 | 0.00 | 0.00 | 77 | 932.3 |
| 20260507025339 | 18 | 225 | 12.9 | 14.5 | 0.00 | 0.00 | 0.00 | 84 | 932.5 |
| 20260507024608 | 19 | 203 | 3.2 | 6.4 | 0.00 | 0.00 | 0.00 | 80 | 932.5 |
| 20260507024058 | 19 | 248 | 3.2 | 6.4 | 0.00 | 0.00 | 0.00 | 81 | 932.5 |
| 20260507023808 | 18 | 203 | 0.0 | 6.4 | 0.00 | 0.00 | 0.00 | 85 | 932.4 |
| 20260507023038 | 18 | 203 | 3.2 | 6.4 | 0.00 | 0.00 | 0.00 | 84 | 932.7 |
| 20260507022528 | 18 | 203 | 3.2 | 12.9 | 0.00 | 0.00 | 0.00 | 85 | 932.5 |
| 20260507022018 | 18 | 248 | 6.4 | 12.9 | 0.00 | 0.00 | 0.00 | 84 | 932.2 |
| 20260507021508 | 18 | 248 | 11.3 | 12.9 | 0.00 | 0.00 | 0.00 | 84 | 932.2 |
| 20260507020958 | 18 | 203 | 6.4 | 9.7 | 0.00 | 0.00 | 0.00 | 83 | 932.4 |
| 20260507020448 | 18 | 180 | 6.4 | 9.7 | 0.00 | 0.00 | 0.00 | 84 | 932.4 |
| 20260507015938 | 19 | 203 | 6.4 | 9.7 | 0.00 | 0.00 | 0.00 | 82 | 932.6 |
| 20260507015427 | 19 | 225 | 4.8 | 12.9 | 0.00 | 0.00 | 0.00 | 81 | 932.4 |
| 20260507014917 | 20 | 225 | 8.0 | 12.9 | 0.00 | 0.00 | 0.00 | 80 | 932.3 |
| 20260507014420 | 21 | 0 | 6.4 | 11.3 | 0.00 | 0.00 | 0.00 | 75 | 932.5 |
| 20260507013856 | 21 | 0 | 4.8 | 9.7 | 0.00 | 0.00 | 0.00 | 74 | 932.5 |
| 20260507013347 | 20 | 225 | 4.8 | 9.7 | 0.00 | 0.00 | 0.00 | 81 | 932.6 |
| 20260507012836 | 20 | 90 | 0.0 | 6.4 | 0.00 | 0.00 | 0.00 | 77 | 932.4 |
| 20260507012326 | 21 | 90 | 3.2 | 6.4 | 0.00 | 0.00 | 0.00 | 75 | 932.2 |
| 20260507011816 | 21 | 23 | 3.2 | 6.4 | 0.00 | 0.00 | 0.00 | 75 | 932.2 |
| 20260507011306 | 21 | 135 | 0.0 | 6.4 | 0.00 | 0.00 | 0.00 | 74 | 931.9 |
| 20260507010756 | 21 | 135 | 3.2 | 6.4 | 0.00 | 0.00 | 0.00 | 74 | 931.9 |
| 20260507010246 | 21 | 158 | 3.2 | 6.4 | 0.00 | 0.00 | 0.00 | 75 | 931.9 |
| 20260507005736 | 21 | 158 | 0.0 | 9.7 | 0.00 | 0.00 | 0.00 | 75 | 931.7 |
| 20260507005444 | 22 | 315 | 3.2 | 11.3 | 0.00 | 0.00 | 0.00 | 71 | 932.0 |
| 20260507004715 | 22 | 338 | 6.4 | 14.5 | 0.00 | 0.00 | 0.00 | 69 | 931.9 |
| 20260507004205 | 22 | 338 | 9.7 | 14.5 | 0.00 | 0.00 | 0.00 | 69 | 931.9 |
| 20260507003655 | 21 | 315 | 1.6 | 14.5 | 0.00 | 0.00 | 0.00 | 71 | 931.8 |
| 20260507003148 | 21 | 338 | 6.4 | 24.1 | 0.00 | 0.00 | 0.00 | 75 | 931.5 |
| 20260507002635 | 22 | 338 | 12.9 | 29.0 | 0.00 | 0.00 | 0.00 | 71 | 931.7 |
| 20260507002125 | 21 | 0 | 19.3 | 29.0 | 0.00 | 0.00 | 0.00 | 74 | 931.8 |
| 20260507001835 | 21 | 0 | 19.3 | 27.4 | 0.00 | 0.00 | 0.00 | 74 | 931.1 |
| 20260507001328 | 21 | 0 | 22.5 | 29.0 | 0.00 | 0.00 | 0.00 | 73 | 931.1 |
| 20260507000554 | 21 | 0 | 22.5 | 33.8 | 0.00 | 0.00 | 0.00 | 75 | 931.3 |
| 20260507000044 | 22 | 0 | 16.1 | 35.4 | 0.00 | 0.00 | 0.00 | 72 | 931.3 |
| 20260506235535 | 22 | 0 | 27.4 | 35.4 | 0.00 | 0.00 | 0.00 | 74 | 931.1 |
| 20260506235024 | 22 | 0 | 25.7 | 33.8 | 0.00 | 0.00 | 0.00 | 72 | 930.8 |
| 20260506234514 | 22 | 0 | 24.1 | 32.2 | 0.00 | 0.00 | 0.00 | 71 | 931.0 |
| 20260506234446 | 22 | 0 | 17.7 | 27.4 | 0.00 | 0.00 | 0.00 | 74 | 931.0 |
| 20260506233455 | 22 | 0 | 9.7 | 14.5 | 0.00 | 0.00 | 0.00 | 72 | 931.1 |
| 20260506232944 | 22 | 0 | 6.4 | 9.7 | 0.00 | 0.00 | 0.00 | 72 | 931.0 |
| 20260506232434 | 22 | 315 | 3.2 | 12.9 | 0.00 | 0.00 | 0.00 | 72 | 931.1 |
| 20260506231924 | 22 | 293 | 4.8 | 25.7 | 0.00 | 0.00 | 0.00 | 73 | 931.0 |
| 20260506231414 | 22 | 338 | 12.9 | 27.4 | 0.00 | 0.00 | 0.00 | 75 | 930.8 |
| 20260506230904 | 22 | 0 | 20.9 | 32.2 | 0.00 | 0.00 | 0.00 | 76 | 930.4 |
| 20260506230354 | 22 | 0 | 22.5 | 32.2 | 0.00 | 0.00 | 0.00 | 74 | 930.4 |
| 20260506225843 | 22 | 0 | 22.5 | 29.0 | 0.00 | 0.00 | 0.00 | 75 | 930.1 |
| 20260506225333 | 22 | 0 | 22.5 | 33.8 | 0.00 | 0.00 | 0.00 | 75 | 930.0 |
| 20260506224823 | 22 | 0 | 19.3 | 40.2 | 0.00 | 0.00 | 0.00 | 74 | 929.8 |
| 20260506224313 | 22 | 0 | 24.1 | 40.2 | 0.00 | 0.00 | 0.00 | 74 | 929.4 |
| 20260506223803 | 22 | 0 | 29.0 | 40.2 | 0.00 | 0.00 | 0.00 | 73 | 929.4 |
| 20260506223253 | 22 | 0 | 20.9 | 27.4 | 0.00 | 0.00 | 0.00 | 74 | 929.4 |
| 20260506222743 | 22 | 0 | 22.5 | 27.4 | 0.00 | 0.00 | 0.00 | 75 | 929.4 |
| 20260506222232 | 21 | 23 | 17.7 | 27.4 | 0.00 | 0.00 | 0.00 | 75 | 929.1 |
| 20260506221722 | 22 | 0 | 19.3 | 27.4 | 0.00 | 0.00 | 0.00 | 71 | 928.9 |
| 20260506221212 | 22 | 0 | 17.7 | 22.5 | 0.00 | 0.00 | 0.00 | 73 | 928.8 |
| 20260506220703 | 22 | 0 | 17.7 | 22.5 | 0.00 | 0.00 | 0.00 | 75 | 928.7 |
| 20260506220151 | 22 | 0 | 14.5 | 27.4 | 0.00 | 0.00 | 0.00 | 74 | 928.7 |
| 20260506215641 | 22 | 0 | 14.5 | 27.4 | 0.00 | 0.00 | 0.00 | 72 | 928.9 |
| 20260506215131 | 23 | 0 | 20.9 | 27.4 | 0.00 | 0.00 | 0.00 | 70 | 928.9 |
| 20260506214621 | 23 | 0 | 20.9 | 25.7 | 0.00 | 0.00 | 0.00 | 70 | 928.6 |
| 20260506214111 | 22 | 23 | 19.3 | 22.5 | 0.00 | 0.00 | 0.00 | 70 | 928.6 |
| 20260506213601 | 22 | 23 | 14.5 | 20.9 | 0.00 | 0.00 | 0.00 | 73 | 928.7 |
| 20260506213052 | 22 | 23 | 14.5 | 24.1 | 0.00 | 0.00 | 0.00 | 73 | 928.3 |
| 20260506212542 | 23 | 0 | 17.7 | 24.1 | 0.00 | 0.00 | 0.00 | 67 | 928.3 |
| 20260506212248 | 23 | 0 | 19.3 | 27.4 | 0.00 | 0.00 | 0.00 | 69 | 928.2 |
| 20260506211521 | 23 | 0 | 19.3 | 27.4 | 0.00 | 0.00 | 0.00 | 67 | 928.3 |
| 20260506211011 | 23 | 0 | 17.7 | 32.2 | 0.00 | 0.00 | 0.00 | 67 | 928.4 |
| 20260506210501 | 24 | 338 | 22.5 | 37.0 | 0.00 | 0.00 | 0.00 | 65 | 928.2 |
| 20260506205950 | 25 | 0 | 29.0 | 37.0 | 0.00 | 0.00 | 0.00 | 62 | 928.3 |
| 20260506205440 | 25 | 0 | 27.4 | 33.8 | 0.00 | 0.00 | 0.00 | 63 | 928.3 |
| 20260506204930 | 25 | 0 | 24.1 | 33.8 | 0.00 | 0.00 | 0.00 | 62 | 928.3 |
| 20260506204420 | 25 | 338 | 27.4 | 35.4 | 0.00 | 0.00 | 0.00 | 63 | 928.4 |
| 20260506203910 | 25 | 0 | 24.1 | 37.0 | 0.00 | 0.00 | 0.00 | 63 | 928.6 |
| 20260506203400 | 25 | 338 | 30.6 | 37.0 | 0.00 | 0.00 | 0.00 | 62 | 928.6 |
| 20260506202850 | 25 | 0 | 25.7 | 38.6 | 0.00 | 0.00 | 0.00 | 63 | 928.4 |
| 20260506202340 | 25 | 0 | 32.2 | 43.5 | 0.00 | 0.00 | 0.00 | 61 | 928.9 |
| 20260506201829 | 25 | 338 | 27.4 | 43.5 | 0.00 | 0.00 | 0.00 | 62 | 928.5 |
| 20260506201549 | 25 | 0 | 27.4 | 40.2 | 0.00 | 0.00 | 0.00 | 62 | 928.8 |
| 20260506201027 | 25 | 0 | 30.6 | 38.6 | 0.00 | 0.00 | 0.00 | 62 | 928.9 |
| 20260506200259 | 25 | 0 | 29.0 | 38.6 | 0.00 | 0.00 | 0.00 | 62 | 928.9 |
| 20260506195750 | 25 | 0 | 33.8 | 40.2 | 0.00 | 0.00 | 0.00 | 62 | 928.9 |
| 20260506195239 | 25 | 0 | 32.2 | 40.2 | 0.00 | 0.00 | 0.00 | 60 | 929.1 |
| 20260506194729 | 25 | 0 | 24.1 | 33.8 | 0.00 | 0.00 | 0.00 | 63 | 929.1 |
| 20260506194219 | 25 | 0 | 24.1 | 35.4 | 0.00 | 0.00 | 0.00 | 61 | 929.0 |
| 20260506193709 | 24 | 0 | 27.4 | 35.4 | 0.00 | 0.00 | 0.00 | 64 | 929.0 |
| 20260506193159 | 25 | 0 | 25.7 | 35.4 | 0.00 | 0.00 | 0.00 | 64 | 929.2 |
| 20260506192648 | 25 | 0 | 24.1 | 38.6 | 0.00 | 0.00 | 0.00 | 63 | 929.2 |
| 20260506192359 | 24 | 0 | 24.1 | 43.5 | 0.00 | 0.00 | 0.00 | 65 | 929.1 |
| 20260506191628 | 25 | 0 | 29.0 | 43.5 | 0.00 | 0.00 | 0.00 | 64 | 929.4 |
| 20260506191118 | 25 | 0 | 33.8 | 43.5 | 0.00 | 0.00 | 0.00 | 63 | 929.2 |
| 20260506190608 | 25 | 0 | 30.6 | 43.5 | 0.00 | 0.00 | 0.00 | 64 | 929.1 |
| 20260506190059 | 24 | 0 | 33.8 | 40.2 | 0.00 | 0.00 | 0.00 | 65 | 929.3 |
| 20260506185548 | 25 | 0 | 32.2 | 40.2 | 0.00 | 0.00 | 0.00 | 63 | 929.3 |
| 20260506185038 | 24 | 0 | 29.0 | 40.2 | 0.00 | 0.00 | 0.00 | 65 | 929.3 |
| 20260506184528 | 24 | 0 | 30.6 | 40.2 | 0.00 | 0.00 | 0.00 | 65 | 929.3 |
| 20260506184017 | 25 | 0 | 35.4 | 46.7 | 0.00 | 0.00 | 0.00 | 64 | 929.5 |
| 20260506183507 | 25 | 0 | 33.8 | 46.7 | 0.00 | 0.00 | 0.00 | 64 | 929.7 |
| 20260506182957 | 25 | 0 | 27.4 | 38.6 | 0.00 | 0.00 | 0.00 | 63 | 929.6 |
| 20260506182710 | 25 | 0 | 33.8 | 43.5 | 0.00 | 0.00 | 0.00 | 62 | 929.7 |
| 20260506181937 | 25 | 0 | 33.8 | 43.5 | 0.00 | 0.00 | 0.00 | 62 | 929.7 |
| 20260506181427 | 25 | 0 | 37.0 | 48.3 | 0.00 | 0.00 | 0.00 | 61 | 929.6 |
| 20260506180916 | 25 | 0 | 33.8 | 48.3 | 0.00 | 0.00 | 0.00 | 62 | 929.5 |
| 20260506180407 | 25 | 338 | 32.2 | 43.5 | 0.00 | 0.00 | 0.00 | 64 | 929.7 |
| 20260506180338 | 25 | 0 | 33.8 | 43.5 | 0.00 | 0.00 | 0.00 | 62 | 929.5 |
| 20260506175346 | 25 | 338 | 37.0 | 43.5 | 0.00 | 0.00 | 0.00 | 60 | 929.9 |
| 20260506174837 | 25 | 0 | 32.2 | 43.5 | 0.00 | 0.00 | 0.00 | 64 | 929.7 |
| 20260506174327 | 24 | 0 | 27.4 | 38.6 | 0.00 | 0.00 | 0.00 | 65 | 930.0 |
| 20260506173816 | 24 | 0 | 24.1 | 40.2 | 0.00 | 0.00 | 0.00 | 66 | 929.8 |
| 20260506173306 | 25 | 0 | 30.6 | 43.5 | 0.00 | 0.00 | 0.00 | 63 | 929.9 |
| 20260506172756 | 25 | 338 | 33.8 | 43.5 | 0.00 | 0.00 | 0.00 | 63 | 930.3 |
| 20260506172504 | 25 | 315 | 24.1 | 37.0 | 0.00 | 0.00 | 0.00 | 64 | 930.2 |
| 20260506171736 | 24 | 0 | 29.0 | 37.0 | 0.00 | 0.00 | 0.00 | 64 | 930.3 |
| 20260506171226 | 25 | 0 | 24.1 | 37.0 | 0.00 | 0.00 | 0.00 | 63 | 930.2 |
| 20260506170715 | 24 | 0 | 27.4 | 37.0 | 0.00 | 0.00 | 0.00 | 64 | 930.5 |
| 20260506170424 | 24 | 0 | 27.4 | 43.5 | 0.00 | 0.00 | 0.00 | 64 | 930.7 |
| 20260506165655 | 23 | 0 | 22.5 | 46.7 | 0.00 | 0.00 | 0.00 | 67 | 930.9 |
| 20260506165410 | 25 | 0 | 35.4 | 46.7 | 0.00 | 0.00 | 0.00 | 62 | 930.8 |
| 20260506164634 | 23 | 0 | 29.0 | 40.2 | 0.00 | 0.00 | 0.00 | 66 | 930.9 |
| 20260506164124 | 23 | 0 | 27.4 | 38.6 | 0.00 | 0.00 | 0.00 | 68 | 931.0 |
| 20260506163838 | 23 | 0 | 27.4 | 38.6 | 0.00 | 0.00 | 0.00 | 69 | 931.1 |
| 20260506163105 | 23 | 0 | 27.4 | 40.2 | 0.00 | 0.00 | 0.00 | 66 | 931.3 |
| 20260506162554 | 23 | 0 | 32.2 | 40.2 | 0.00 | 0.00 | 0.00 | 67 | 931.5 |
| 20260506162044 | 23 | 0 | 24.1 | 43.5 | 0.00 | 0.00 | 0.00 | 69 | 931.5 |
| 20260506161534 | 23 | 0 | 37.0 | 49.9 | 0.00 | 0.00 | 0.00 | 68 | 931.4 |
| 20260506161025 | 23 | 0 | 29.0 | 49.9 | 0.00 | 0.00 | 0.00 | 66 | 931.7 |
| 20260506160514 | 23 | 0 | 43.5 | 49.9 | 0.00 | 0.00 | 0.00 | 66 | 931.7 |
| 20260506160004 | 23 | 338 | 33.8 | 46.7 | 0.00 | 0.00 | 0.00 | 66 | 931.7 |
| 20260506155454 | 23 | 338 | 33.8 | 46.7 | 0.00 | 0.00 | 0.00 | 67 | 932.0 |
| 20260506155202 | 23 | 0 | 29.0 | 43.5 | 0.00 | 0.00 | 0.00 | 68 | 932.2 |
| 20260506154433 | 23 | 23 | 32.2 | 46.7 | 0.00 | 0.00 | 0.00 | 68 | 932.3 |
| 20260506153923 | 23 | 0 | 27.4 | 51.5 | 0.00 | 0.00 | 0.00 | 67 | 932.5 |
| 20260506153414 | 23 | 0 | 37.0 | 51.5 | 0.00 | 0.00 | 0.00 | 67 | 932.8 |
| 20260506152903 | 23 | 0 | 32.2 | 40.2 | 0.00 | 0.00 | 0.00 | 67 | 932.9 |
| 20260506152354 | 23 | 23 | 29.0 | 40.2 | 0.00 | 0.00 | 0.00 | 68 | 932.9 |
| 20260506151842 | 23 | 338 | 33.8 | 40.2 | 0.00 | 0.00 | 0.00 | 66 | 933.1 |
| 20260506151333 | 23 | 0 | 25.7 | 33.8 | 0.00 | 0.00 | 0.00 | 69 | 933.3 |
| 20260506150823 | 22 | 338 | 24.1 | 32.2 | 0.00 | 0.00 | 0.00 | 69 | 933.3 |
| 20260506150313 | 23 | 0 | 20.9 | 33.8 | 0.00 | 0.00 | 0.00 | 69 | 933.2 |
| 20260506145802 | 23 | 0 | 20.9 | 40.2 | 0.00 | 0.00 | 0.00 | 69 | 933.2 |
| 20260506145253 | 23 | 0 | 27.4 | 40.2 | 0.00 | 0.00 | 0.00 | 68 | 933.4 |
| 20260506145226 | 22 | 0 | 24.1 | 35.4 | 0.00 | 0.00 | 0.00 | 69 | 933.6 |
| 20260506144232 | 22 | 23 | 25.7 | 37.0 | 0.00 | 0.00 | 0.00 | 70 | 933.8 |
| 20260506143722 | 22 | 23 | 27.4 | 37.0 | 0.00 | 0.00 | 0.00 | 69 | 933.7 |
| 20260506143435 | 22 | 23 | 24.1 | 40.2 | 0.00 | 0.00 | 0.00 | 69 | 933.7 |
| 20260506142702 | 22 | 0 | 27.4 | 40.2 | 0.00 | 0.00 | 0.00 | 70 | 933.9 |
| 20260506142419 | 22 | 23 | 24.1 | 33.8 | 0.00 | 0.00 | 0.00 | 69 | 933.9 |
| 20260506141641 | 22 | 0 | 25.7 | 40.2 | 0.00 | 0.00 | 0.00 | 70 | 934.0 |
| 20260506141356 | 22 | 0 | 29.0 | 40.2 | 0.00 | 0.00 | 0.00 | 71 | 934.1 |
| 20260506140621 | 22 | 0 | 27.4 | 38.6 | 0.00 | 0.00 | 0.00 | 70 | 934.1 |
| 20260506140333 | 22 | 338 | 22.5 | 38.6 | 0.00 | 0.00 | 0.00 | 71 | 934.2 |
| 20260506135601 | 22 | 0 | 32.2 | 43.5 | 0.00 | 0.00 | 0.00 | 70 | 934.1 |
| 20260506135051 | 22 | 23 | 24.1 | 43.5 | 0.00 | 0.00 | 0.00 | 69 | 934.3 |
| 20260506134541 | 22 | 0 | 27.4 | 33.8 | 0.00 | 0.00 | 0.00 | 72 | 934.3 |
| 20260506134031 | 22 | 23 | 25.7 | 35.4 | 0.00 | 0.00 | 0.00 | 73 | 934.4 |
| 20260506133521 | 22 | 0 | 24.1 | 35.4 | 0.00 | 0.00 | 0.00 | 75 | 934.6 |
| 20260506133015 | 22 | 23 | 19.3 | 35.4 | 0.00 | 0.00 | 0.00 | 75 | 934.4 |
| 20260506132501 | 22 | 23 | 22.5 | 33.8 | 0.00 | 0.00 | 0.00 | 75 | 934.5 |
| 20260506131951 | 21 | 0 | 24.1 | 35.4 | 0.00 | 0.00 | 0.00 | 75 | 934.7 |
| 20260506131440 | 21 | 0 | 25.7 | 35.4 | 0.00 | 0.00 | 0.00 | 74 | 934.5 |
| 20260506130930 | 21 | 0 | 29.0 | 35.4 | 0.00 | 0.00 | 0.00 | 73 | 934.4 |
| 20260506130420 | 21 | 0 | 17.7 | 29.0 | 0.00 | 0.00 | 0.00 | 77 | 934.4 |
| 20260506125910 | 21 | 45 | 19.3 | 29.0 | 0.00 | 0.00 | 0.00 | 76 | 934.5 |
| 20260506125400 | 21 | 23 | 19.3 | 32.2 | 0.00 | 0.00 | 0.00 | 76 | 934.7 |